This is the latest recevied weather packets stored in our database for station/object KK7KHO. If no packets are shown the sender has not sent any weather packets the latest 10 day(s).
| Time | Temp. | Humidity | Pressure | Rain* | Wind** | Luminosity | Snow |
|---|---|---|---|---|---|---|---|
| 1777920831 | 22.78° C | 58% | 1009.9 hPa | 0 mm | - | 591 W/m² | - |
| 1777920527 | 22.22° C | 63% | 1009.9 hPa | 0 mm | - | 556 W/m² | - |
| 1777920223 | 21.67° C | 62% | 1009.9 hPa | 0 mm | - | 548 W/m² | - |
| 1777919919 | 21.67° C | 63% | 1009.8 hPa | 0 mm | - | 503 W/m² | - |
| 1777919617 | 21.67° C | 65% | 1009.9 hPa | 0 mm | - | 537 W/m² | - |
| 1777919314 | 22.22° C | 62% | 1009.9 hPa | 0 mm | - | 475 W/m² | - |
| 1777919012 | 21.67° C | 62% | 1009.8 hPa | 0 mm | - | 492 W/m² | - |
| 1777918708 | 22.22° C | 59% | 1009.8 hPa | 0 mm | - | 502 W/m² | - |
| 1777918406 | 22.22° C | 58% | 1010.1 hPa | 0 mm | - | 500 W/m² | - |
| 1777918105 | 22.22° C | 56% | 1009.8 hPa | 0 mm | - | 527 W/m² | - |
| 1777917803 | 22.22° C | 58% | 1010 hPa | 0 mm | - | 537 W/m² | - |
| 1777917500 | 22.22° C | 56% | 1010 hPa | 0 mm | - | 530 W/m² | - |
| 1777917197 | 20.56° C | 59% | 1009.7 hPa | 0 mm | - | 526 W/m² | - |
| 1777916895 | 21.11° C | 61% | 1009.9 hPa | 0 mm | - | 532 W/m² | - |
| 1777916592 | 21.11° C | 59% | 1010 hPa | 0 mm | - | 503 W/m² | - |
| 1777916289 | 20.56° C | 58% | 1010 hPa | 0 mm | - | 508 W/m² | - |
| 1777915986 | 21.67° C | 60% | 1009.9 hPa | 0 mm | - | 507 W/m² | - |
| 1777915683 | 21.11° C | 65% | 1010 hPa | 0 mm | - | 479 W/m² | - |
| 1777915379 | 21.11° C | 67% | 1009.9 hPa | 0 mm | - | 494 W/m² | - |
| 1777915075 | 21.11° C | 67% | 1009.9 hPa | 0 mm | - | 507 W/m² | - |
| 1777914773 | 21.11° C | 67% | 1009.9 hPa | 0 mm | - | 484 W/m² | - |
| 1777914470 | 20.56° C | 65% | 1010 hPa | 0 mm | - | 484 W/m² | - |
| 1777914167 | 21.11° C | 64% | 1010 hPa | 0 mm | - | 443 W/m² | - |
| 1777913863 | 21.11° C | 63% | 1010 hPa | 0 mm | - | 446 W/m² | - |
| 1777913560 | 20.56° C | 61% | 1010.1 hPa | 0 mm | - | 420 W/m² | - |
* Rain latest hour (hover to see other rain measurements)
** Current wind speed in m/s (hover to see current wind gust speed)